Tracking 25648 objects as of 17-May-2022
HD Live streaming from Space Station
objects crossing your sky now

COSMOS 2251 DEB

Track COSMOS 2251 DEB now!
10-day predictions


NORAD ID: 34916
Int'l Code: 1993-036ADM
Perigee: 582.6 km
Apogee: 717.4 km
Inclination: 74.1 °
Period: 97.6 minutes
Semi major axis: 7021 km
RCS: 0.0123 m2 (small)
Launch date: June 16, 1993
Source: Commonwealth of Independent States (former USSR) (CIS)
Launch site: PLESETSK MISSILE AND SPACE COMPLEX (PKMTR)

Note: This is SATELLITE DEBRIS
aabbcc
Your satellite tracking list
Your tracking list is empty




NASA's NSSDC Master Catalog

Two Line Element Set (TLE):
1 34916U 93036ADM 22137.06733612  .00011809  00000-0  16031-2 0  9999
2 34916  74.0734 162.1283 0096032 288.0395 102.1098 14.75720177703415
Source of the keplerian elements: AFSPC